Flight Track Log - Related Links

Times and Time Zones

All times are in EST time to prevent confusion due to time zone crossing. See the PKW659 flight status page for this flight to view local times or setup timezone preferences in your user account.

Time Position Orientation Groundspeed Altitude Reporting Facility
EST Latitude Longitude Course Direction KTS MPH feet Rate Location/Type
Wed 05:51:43 PM 43.0167 -81.1333 228° Southwest 10 12 1,000  Level Toronto Center
Wed 05:52:43 PM 43.0167 -81.1667 270° West 140 161 3,000 2,650 Climbing Toronto Center
Wed 05:53:43 PM 43.0000 -81.2333 251° West 170 196 6,300 2,750 Climbing Toronto Center
Wed 05:54:43 PM 42.9667 -81.2667 216° Southwest 210 242 8,500 1,900 Climbing Toronto Center
Wed 05:55:43 PM 42.9333 -81.3333 236° Southwest 210 242 10,100 1,250 Climbing Toronto Center
Wed 05:56:43 PM 42.9000 -81.4000 236° Southwest 220 253 11,000 500 Climbing Toronto Center
Wed 05:57:00 PM 42.8198 -81.5644 228° Southwest  Level Estimated
Wed 05:57:43 PM 42.8500 -81.4833 231° Southwest 240 276 11,100  Level Toronto Center
Wed 05:58:57 PM 42.8064 -81.5583 232° Southwest 229 264 12,500 1,103 Climbing Cleveland Center
Wed 05:59:59 PM 42.7586 -81.6186 223° Southwest 230 265 13,600 145 Climbing Cleveland Center
Wed 06:01:01 PM 42.7053 -81.6803 220° Southwest 248 285 12,800 -1,355 Descending Cleveland Center
Wed 06:02:03 PM 42.6511 -81.7450 221° Southwest 254 292 10,800 -1,935 Descending Cleveland Center
Wed 06:03:05 PM 42.5958 -81.8211 225° Southwest 254 292 8,800 -1,355 Descending Cleveland Center
Wed 06:04:07 PM 42.5628 -81.8975 240° Southwest 241 277 8,000 -384 Descending Cleveland Center
Wed 06:05:10 PM 42.5392 -81.9783 248° West 231 266 8,000 -48 Level Cleveland Center
Wed 06:06:12 PM 42.5144 -82.0647 249° West 242 278 7,900 48 Descending Cleveland Center
Wed 06:07:14 PM 42.4775 -82.1656 244° Southwest 247 284 8,100 48 Climbing Cleveland Center
Wed 06:08:16 PM 42.4531 -82.2294 243° Southwest 247 284 8,000 -55 Descending Cleveland Center
Wed 06:09:03 PM 42.4217 -82.3094 242° Southwest 228 262 8,000 -97 Level Cleveland Center
Wed 06:09:18 PM 42.4161 -82.3214 238° Southwest 239 275 7,900  Descending Cleveland Center
Wed 06:10:20 PM 42.3858 -82.3936 240° Southwest 225 259 8,000 94 Climbing Cleveland Center
Wed 06:10:22 PM 42.3817 -82.4061 246° West 218 251 8,000 97 Level Cleveland Center
Wed 06:11:22 PM 42.3597 -82.4708 245° Southwest 225 259 8,100 -98 Climbing Cleveland Center
Wed 06:11:23 PM 42.3553 -82.4847 247° West 229 264 7,900  Descending Cleveland Center
Wed 06:12:24 PM 42.3183 -82.5378 227° Southwest 229 264 8,100 194 Climbing Cleveland Center
Wed 06:12:25 PM 42.3089 -82.5492 222° Southwest 241 277 8,100 -97 Level Cleveland Center
Wed 06:13:26 PM 42.2561 -82.6128 222° Southwest 244 281 8,000 -49 Descending Cleveland Center
Wed 06:14:27 PM 42.2078 -82.6742 223° Southwest 243 280 8,000  Level Cleveland Center
Wed 06:14:29 PM 42.2075 -82.6736 124° Southeast 242 278 8,000 98 Level Cleveland Center
Wed 06:15:28 PM 42.1550 -82.7378 222° Southwest 242 278 8,100 97 Climbing Cleveland Center
Wed 06:15:31 PM 42.1581 -82.7328 50° Northeast 242 278 8,100 -1,964 Level Cleveland Center
Wed 06:16:23 PM 42.1114 -82.7911 223° Southwest 233 268 6,300 -1,742 Descending Cleveland Center
Wed 06:16:33 PM 42.1089 -82.7925 202° Southwest 241 277 6,300 -2,066 Level Cleveland Center
Wed 06:17:24 PM 42.0669 -82.8528 227° Southwest 227 261 4,200 -2,032 Descending Cleveland Center
Wed 06:17:35 PM 42.0658 -82.8539 217° Southwest 232 267 4,200 -197 Level Cleveland Center
Wed 06:18:25 PM 42.0250 -82.9117 226° Southwest 214 246 4,000 -194 Descending Cleveland Center
Wed 06:18:37 PM 42.0233 -82.9119 187° South 222 255 4,000 97 Level Cleveland Center
Wed 06:19:27 PM 41.9767 -82.9697 223° Southwest 229 264 4,100 97 Climbing Cleveland Center
Wed 06:19:39 PM 41.9681 -82.9803 222° Southwest 221 254 4,100  Level Cleveland Center
Wed 06:20:41 PM 41.9169 -83.0347 218° Southwest 229 264 4,100 -48 Level Cleveland Center
Wed 06:21:43 PM 41.8703 -83.0936 223° Southwest 229 264 4,000  Descending Cleveland Center
Wed 06:22:45 PM 41.8256 -83.1514 224° Southwest 229 264 4,100  Climbing Cleveland Center
Wed 06:23:48 PM 41.7750 -83.2136 223° Southwest 224 258 4,000 -48 Descending Cleveland Center
Wed 06:24:50 PM 41.7536 -83.2797 247° West 228 262 4,000 -48 Level Cleveland Center
Wed 06:25:52 PM 41.7275 -83.3722 249° West 223 257 3,900  Descending Cleveland Center
Wed 06:26:54 PM 41.7031 -83.4481 247° West 223 257 4,000 48 Climbing Cleveland Center
Wed 06:27:56 PM 41.6783 -83.5217 246° West 222 255 4,000  Level Cleveland Center
Wed 06:28:58 PM 41.6603 -83.5831 249° West 177 204 4,000 -242 Level Cleveland Center
Wed 06:30:00 PM 41.6444 -83.6297 246° West 144 166 3,500 -532 Descending Cleveland Center
Wed 06:31:02 PM 41.6306 -83.6781 249° West 141 162 2,900 -720 Descending Cleveland Center
Wed 06:32:05 PM 41.6156 -83.7250 247° West 140 161 2,000 -857 Descending Cleveland Center
Wed 06:34:00 PM 41.5833 -83.8000 270° West  Level FlightAware Approximate
Wed 06:41:00 PM 41.5868 -83.8078 270° West  Level Estimated

Login

Don't have an account? Register now (free) for customized features, flight alerts, and more!